Showing default

EOS-8, 60454

Orbit data source: Space-Track

EOS-8, 60454 is a payload satellite owned by ISRO (IN) in LEO that was launched on Fri, 16 Aug 2024 UTC via an SSLV launch vehicle from the Sirharikota (SRI). Payload-class satellites include a variety of spacecraft equipped with specific instruments for various scientific and technological missions. These include communications satellites like Starlink; space stations such as the ISS; scientific satellites like the Hubble; Earth observation satellites from companies like Planet Labs, Umbra, and HawkEye 360; GPS; miniature CubeSats for education and research; and military/defense satellites.

Loading next visibility...
Identifier
60454, 2024-147A
Orbit
LEO
Country
Flag of ININ / IND
Related business
Manufacturer
ISRO SAC/Banga
Mission
Operational Civil Imaging
Bus & Motor
IMS-1, Unknown motor
Mass
176 kg wet, ~176 kg dry
Launch date (UTC)
2024-08-16 (1 year ago)
Launch vehicle
SSLV
Launch site
Sirharikota (SRI)
Object type
Payload
Rocket body
Debris
Shape & HBR
Box + 2 Pan, 1.5 m
Radar Cross Section
0.935 m², Large (>1 m²)

Expand to show TLE details & history
Last TLE update: 13 hours ago

TLE from 13 hours ago
0 EOS-8
1 60454U 24147A   25310.28473544  .00100402  00000-0  22322-2 0  9995
2 60454  37.3825  23.3822 0002422  38.0070 322.0864 15.42443303 68588
Epoch: 2025-11-06T06:50Z
TLE epoch observation values (Epoch: 2025-11-06T06:50:01.142Z)
Latitude
-0.00001°
Longitude
-124.86782°
Altitude
436.751 km
Speed
7.653 km/s
True Right ascension
01h 33m 31s
True Declination
0° 00' 00"
Sunlit
Object was in full shadow at epoch
Visualization orbit readout
Latitude
Unknown
Longitude
Unknown
Altitude
Unknown
Speed
Unknown
Apparent Right ascension
Unknown
Apparent Declination
Unknown
Sunlit
N/A
Visualization observer readout
Local Sidereal Time
15:28:05
Azimuth
Unknown
Elevation
Unknown
Doppler factor
Unknown
Orbital elements
Apogee altitude
443.446 km
Perigee altitude
440.142 km
Semi-major axis
6,819.931 km
Eccentricity
0.00024
Inclination
37.3825°
RAAN
23.3822°
Arg. of periapsis
38.007°
True anomaly
322.06934°
Mean anomaly
322.0864°
Eccentric anomaly
322.07787°
Mean motion
3.85366 °/min
Orbital period
93.42 mins
BSTAR
0.0022322
Loading maneuver chart data...
Computing Atmospheric mass density...
Loading historical data...
Loading historical data...
Loading historical data...
Loading historical data...
Loading historical data...
Loading historical data...
Loading historical data...
Other satellites on launch #147 in the year 2024 (2024-08-16 UTC)

Documentation

Showing up to 5 results
|